Kingman, AZ

6:43 PM MST on February 22, 2017 (GMT -0700)
Kingman

Weather History for KIGM - March, 2013

Change the Weather History Date:

Friday, March 8, 2013

  Actual Average Record
Temperature  
Mean Temperature 43 °F 50 °F  
Max Temperature 53 °F 64 °F 84 °F (1910)
Min Temperature 33 °F 37 °F 24 °F (1969)
Degree Days  
Heating Degree Days 22 15  
Month to date heating degree days 102 124  
Since 1 July heating degree days 2569 2537  
Cooling Degree Days 0 0  
Month to date cooling degree days 0 0  
Year to date cooling degree days 0 0  
Moisture  
Dew Point 36 °F    
Average Humidity 75    
Maximum Humidity 83    
Minimum Humidity 66    
Precipitation  
Precipitation 0.13 in 0.03 in 0.91 in (1992)
Month to date precipitation 0.13 0.29  
Year to date precipitation 1.12 2.45  
Sea Level Pressure  
Sea Level Pressure 29.73 in    
Wind  
Wind Speed 13 mph (SSW)    
Max Wind Speed 32 mph    
Max Gust Speed 38 mph    
Visibility 9 miles    
Events Rain , Snow    
T = Trace of Precipitation, MM = Missing Value Source: NWS Daily Summary

Daily Weather History Graph

Daily Weather History Graph

Search for Another Location

Airport or City:

Trip Planner

Search our weather history database for the weather conditions in past years. The results will help you decide how hot, cold, wet, or windy it might be!

Date:

Astronomy

Mar. 08, 2013 Rise Set
Actual Time 6:55 AM MST 6:37 PM MST
Civil Twilight 6:30 AM MST 7:03 PM MST
Nautical Twilight 6:00 AM MST 7:32 PM MST
Astronomical Twilight 5:31 AM MST 8:02 PM MST
Moon 4:36 AM MST (3/8) 3:42 PM MST (3/8)
Length of Visible Light 12h 32m
Length of Day
11h 42m
Waning Crescent, 11% of the Moon is Illuminated
Mar 8
Waning Crescent
Mar 11
New
Mar 19
First Quarter
Mar 27
Full
Apr 2
Last Quarter

Hourly Weather History & Observations

Time (MST) Temp. Windchill Dew Point Humidity Pressure Visibility Wind Dir Wind Speed Gust Speed Precip Events Conditions
12:51 AM 51.1 °F - 37.9 °F 61% 29.71 in 9.0 mi SSE 29.9 mph 38.0 mph 0.00 in Rain Light Rain
1:51 AM 48.0 °F - 39.9 °F 74% 29.71 in 10.0 mi SSE 8.1 mph - 0.01 in Rain Light Rain
2:51 AM 48.0 °F - 37.9 °F 68% 29.70 in 10.0 mi SE 4.6 mph - 0.00 in   Unknown
3:51 AM 46.0 °F 42.5 °F 41.0 °F 83% 29.67 in 10.0 mi West 6.9 mph - 0.00 in   Overcast
4:51 AM 46.0 °F 43.9 °F 42.1 °F 86% 29.64 in 10.0 mi ESE 4.6 mph - 0.00 in Rain Light Rain
5:51 AM 46.9 °F - 39.0 °F 74% 29.65 in 10.0 mi SE 18.4 mph 21.9 mph 0.00 in   Overcast
6:51 AM 46.0 °F 38.8 °F 39.0 °F 76% 29.65 in 9.0 mi SE 18.4 mph 36.8 mph 0.00 in Rain Light Rain
7:51 AM 46.9 °F - 39.9 °F 77% 29.64 in 10.0 mi SSW 6.9 mph - 0.01 in   Overcast
8:05 AM 46.4 °F 39.0 °F 39.2 °F 76% 29.76 in 10.0 mi SW 19.6 mph 23.0 mph N/A   Overcast
8:31 AM 44.6 °F 38.1 °F 39.2 °F 81% 29.76 in 9.0 mi SW 13.8 mph - 0.02 in Rain Light Rain
8:41 AM 44.6 °F 38.4 °F 39.2 °F 81% 29.76 in 10.0 mi SW 12.7 mph - 0.02 in   Overcast
8:48 AM 44.6 °F 37.4 °F 39.2 °F 81% 29.76 in 10.0 mi SW 16.1 mph - 0.02 in Rain Light Rain
8:51 AM 45.0 °F 38.2 °F 39.0 °F 80% 29.66 in 10.0 mi SW 15.0 mph - 0.02 in Rain Light Rain
9:13 AM 44.6 °F 37.4 °F 39.2 °F 81% 29.76 in 10.0 mi SSW 16.1 mph - N/A   Overcast
9:51 AM 44.1 °F 35.2 °F 39.0 °F 82% 29.67 in 10.0 mi SW 23.0 mph - N/A   Overcast
10:02 AM 44.6 °F 36.6 °F 39.2 °F 81% 29.77 in 10.0 mi SW 19.6 mph 26.5 mph N/A   Overcast
10:51 AM 44.1 °F 35.4 °F 39.0 °F 82% 29.68 in 10.0 mi SW 21.9 mph 25.3 mph 0.00 in   Overcast
11:51 AM 46.0 °F 40.6 °F 39.0 °F 76% 29.67 in 10.0 mi SSW 11.5 mph - 0.00 in   Overcast
12:24 PM 46.4 °F 39.5 °F 39.2 °F 76% 29.76 in 10.0 mi SSW 17.3 mph 24.2 mph 0.00 in Rain Light Rain
12:42 PM 48.2 °F - 39.2 °F 71% 29.75 in 10.0 mi SSW 16.1 mph 25.3 mph 0.00 in   Overcast
12:46 PM 48.2 °F - 39.2 °F 71% 29.75 in 10.0 mi SSW 17.3 mph 26.5 mph 0.00 in   Overcast
12:51 PM 48.9 °F - 39.0 °F 69% 29.64 in 10.0 mi SW 13.8 mph 26.5 mph 0.00 in   Overcast
1:01 PM 48.2 °F - 39.2 °F 71% 29.77 in 9.0 mi SSW 33.4 mph 44.9 mph N/A   Overcast
1:12 PM 37.4 °F 25.2 °F 33.8 °F 87% 29.79 in 2.0 mi SSW 28.8 mph 47.2 mph 0.00 in Snow Light Snow
1:15 PM 35.6 °F 23.0 °F 33.8 °F 93% 29.80 in 1.5 mi SSW 27.6 mph 42.6 mph 0.00 in Snow Light Snow
1:17 PM 35.6 °F 23.7 °F 33.8 °F 93% 29.80 in 1.2 mi SSW 24.2 mph 38.0 mph 0.00 in Snow Light Snow
1:22 PM 33.8 °F 22.2 °F 32.0 °F 93% 29.81 in 0.8 mi SW 20.7 mph 34.5 mph 0.03 in Snow Light Snow
1:35 PM 33.8 °F 22.8 °F 32.0 °F 93% 29.79 in 1.0 mi SW 18.4 mph - 0.07 in Snow Light Snow
1:39 PM 33.8 °F 23.5 °F 33.8 °F 100% 29.78 in 2.0 mi SW 16.1 mph 25.3 mph 0.08 in Snow Light Snow
1:43 PM 35.6 °F 25.9 °F 33.8 °F 93% 29.77 in 5.0 mi SW 16.1 mph - 0.08 in Snow Light Snow
1:46 PM 35.6 °F 25.5 °F 33.8 °F 93% 29.77 in 8.0 mi SW 17.3 mph - 0.08 in Rain Light Rain
1:51 PM 37.9 °F 27.9 °F 35.1 °F 89% 29.69 in 10.0 mi SW 19.6 mph - 0.08 in Rain Light Rain
2:01 PM 39.2 °F 29.8 °F 37.4 °F 93% 29.76 in 10.0 mi SW 18.4 mph - 0.00 in   Overcast
2:51 PM 39.9 °F 31.8 °F 33.1 °F 77% 29.64 in 10.0 mi SSW 15.0 mph - 0.00 in   Overcast
3:51 PM 42.1 °F 33.9 °F 33.1 °F 70% 29.68 in 10.0 mi SSW 17.3 mph - N/A   Overcast
4:51 PM 43.0 °F 36.4 °F 33.1 °F 68% 29.68 in 10.0 mi SSW 12.7 mph - N/A   Scattered Clouds
5:51 PM 43.0 °F 36.0 °F 32.0 °F 65% 29.68 in 10.0 mi SSW 13.8 mph - N/A   Partly Cloudy
6:51 PM 41.0 °F 34.7 °F 32.0 °F 70% 29.70 in 10.0 mi South 10.4 mph - N/A   Clear
7:51 PM 39.0 °F 32.8 °F 34.0 °F 82% 29.73 in 10.0 mi SE 9.2 mph - N/A   Scattered Clouds
8:51 PM 37.9 °F 32.1 °F 30.0 °F 73% 29.75 in 10.0 mi SSE 8.1 mph - N/A   Clear
9:16 PM 39.2 °F 27.8 °F 32.0 °F 75% 29.85 in 10.0 mi SSW 27.6 mph 35.7 mph 0.00 in Rain Light Rain
9:46 PM 35.6 °F 25.9 °F 33.8 °F 93% 29.86 in 9.0 mi SSW 16.1 mph 28.8 mph 0.01 in Rain Light Rain
9:51 PM 35.1 °F 25.5 °F 33.1 °F 92% 29.80 in 10.0 mi SSW 15.0 mph - 0.01 in Rain Light Rain
10:14 PM 35.6 °F 26.6 °F 33.8 °F 93% 29.86 in 10.0 mi South 13.8 mph - 0.00 in   Mostly Cloudy
10:51 PM 36.0 °F 30.3 °F 32.0 °F 86% 29.80 in 10.0 mi SSW 6.9 mph - 0.00 in   Clear
11:51 PM 36.0 °F - 32.0 °F 86% 29.80 in 10.0 mi Calm Calm - N/A   Mostly Cloudy